Theta_e
282 284 286 285 285 284 282 285 281 285 283 285 288 287 289 290 290 291 291 291 292 291 290 289 289 289 289 288 288 288 288 287 286 286 287 287 286 286 285 285 285 284 284 283
278 284 284 283 286 286 287 286 285 286 284 286 284 287 289 290 291 291 292 293 293 291 290 289 290 289 289 288 288 288 287 286 285 286 285 285 284 284 284 284 283 283 283 283
273 282 283 280 283 285 286 288 287 283 288 285 286 288 290 290 291 292 293 294 293 292 291 291 290 290 289 288 287 286 286 285 285 285 284 284 284 283 283 283 283 282 282 283
275 279 274 283 286 288 287 288 288 289 285 287 288 290 291 293 292 292 293 294 293 293 292 292 291 289 289 287 286 286 285 284 284 284 283 283 283 282 282 282 281 281 281 282
278 273 280 285 283 283 282 285 287 287 287 288 285 287 288 291 294 295 294 295 296 296 294 292 290 289 287 286 285 285 284 284 283 283 282 282 282 281 280 279 279 279 280 280
271 277 275 281 287 288 289 282 290 287 287 288 287 283 290 292 292 294 295 295 294 294 292 290 289 288 287 285 284 284 284 284 283 282 282 282 281 279 278 279 279 280 280 278
271 277 276 283 285 289 280 281 284 287 290 289 288 292 290 290 290 291 292 292 292 291 290 289 287 287 286 285 285 285 283 282 281 281 281 280 279 277 278 278 278 277 277 275
269 268 276 282 283 286 287 284 285 286 286 287 288 288 288 288 289 290 288 289 289 287 287 287 287 287 286 285 285 283 282 281 280 280 280 279 278 277 278 278 277 276 276 275
282 281 284 284 284 286 286 286 286 286 287 288 287 287 286 287 286 286 286 286 284 285 284 284 286 288 286 285 283 282 281 280 278 278 278 278 278 277 276 276 276 275 275 274
282 280 282 283 284 285 285 285 286 285 284 285 285 285 285 285 285 284 282 283 280 282 282 282 285 285 286 283 283 283 281 279 278 278 277 277 277 277 276 275 275 274 273 273
278 280 282 283 285 286 285 285 285 285 285 285 285 284 284 282 280 282 281 279 280 281 281 280 280 282 282 282 283 282 280 278 277 278 277 275 275 275 275 274 275 273 271 271
280 284 285 285 285 286 285 284 285 285 284 284 285 284 281 279 280 278 277 277 278 277 279 278 279 278 280 282 284 282 279 277 277 276 275 274 273 271 275 276 278 279 278 273
285 285 284 284 285 286 285 284 284 284 284 284 281 282 279 278 277 277 275 276 277 277 278 278 278 277 279 281 282 281 280 277 276 275 273 272 272 272 270 271 277 279 280 281
284 285 285 287 286 285 285 283 280 277 278 279 277 276 275 275 274 275 275 276 276 277 276 277 278 279 277 279 280 280 279 277 276 275 274 272 271 271 270 269 267 265 275 275
280 281 284 282 281 279 278 279 280 279 275 276 274 275 275 276 276 276 274 274 273 275 275 276 277 276 272 273 276 274 274 275 275 273 272 271 268 265 265 261 262 258 257 266
277 276 278 279 278 276 275 275 276 275 273 273 274 274 273 272 271 272 270 270 273 273 272 272 274 273 269 269 269 268 267 268 267 268 266 265 265 264 262 260 260 259 257 258
278 277 275 275 274 272 273 272 273 273 272 272 272 269 268 267 268 270 266 265 266 266 266 272 274 269 267 267 267 267 265 264 264 263 264 265 264 263 263 263 262 261 262 256
275 275 274 274 274 274 271 270 269 268 266 265 264 264 264 265 266 264 263 261 261 263 265 266 265 264 264 265 266 265 265 264 263 265 264 263 263 263 262 263 261 262 257 253
268 268 268 267 267 268 266 262 261 261 261 261 264 262 259 260 260 260 258 260 260 262 266 261 267 263 263 263 264 263 264 263 262 262 263 262 262 261 261 261 260 259 255 258
263 262 263 261 260 259 258 255 255 257 256 257 257 260 260 259 258 260 256 261 260 262 260 261 259 260 258 260 268 262 264 264 264 264 262 262 262 261 261 259 260 257 259 259
256 257 257 257 256 254 253 253 253 253 252 252 254 251 251 253 254 255 259 261 258 256 257 258 255 257 256 258 261 258 260 260 262 262 261 262 260 258 258 259 256 260 259 257
252 252 253 253 252 250 250 249 250 250 251 251 250 250 252 253 253 254 251 255 256 256 255 256 256 255 255 260 257 257 257 258 258 257 257 258 257 257 259 259 259 259 258 258
251 249 249 248 247 247 246 247 247 247 248 247 247 248 249 251 251 252 255 253 254 254 255 253 255 259 260 255 254 254 254 255 256 256 257 258 259 260 260 259 259 259 260 260
249 249 248 247 246 248 250 249 247 246 245 246 246 247 248 252 252 249 250 253 254 254 254 254 255 264 261 253 254 255 255 256 257 259 259 260 259 260 260 261 260 260 260 261
246 245 246 248 249 248 246 247 248 247 247 248 248 246 245 248 249 252 252 252 255 255 254 256 263 264 253 251 252 252 253 254 257 259 260 260 260 260 260 261 260 260 260 259
246 246 245 245 246 246 246 247 248 248 248 250 250 248 249 249 250 251 251 253 252 254 253 255 256 255 253 254 255 255 256 257 258 259 260 260 260 260 260 259 259 259 259 258
243 246 246 247 246 245 245 246 246 248 245 243 245 247 246 248 249 251 251 251 251 252 251 251 254 257 256 256 256 256 256 257 258 258 257 258 259 259 259 259 258 258 258 257
Wind_Speed
1 6 8 9 9 9 7 15 9 26 16 8 12 8 6 5 5 7 8 9 9 8 7 7 7 6 5 5 7 7 7 7 6 7 8 8 8 8 8 9 8 8 9 7
0 3 5 5 13 13 17 20 15 22 21 5 2 3 5 8 8 9 12 14 14 11 10 11 11 9 8 7 7 7 8 8 8 9 8 8 8 8 8 8 7 7 6 7
7 3 3 4 15 15 12 18 16 18 20 5 7 9 10 9 12 15 15 14 13 13 13 12 13 12 11 10 8 8 8 8 9 9 9 8 8 9 8 7 6 7 6 7
4 3 5 10 7 16 19 18 17 19 3 8 11 10 7 7 10 13 13 12 14 14 14 12 10 9 9 9 9 9 8 9 8 9 9 8 8 8 6 5 6 5 6 6
6 5 8 21 6 7 7 16 15 17 7 11 3 2 9 10 12 15 12 14 14 13 13 13 14 12 12 10 9 9 10 10 8 9 9 8 8 7 5 5 3 2 4 6
4 9 18 4 14 9 5 28 9 13 15 15 8 4 15 10 8 15 11 8 11 12 10 13 13 14 15 13 12 11 10 10 9 8 9 9 7 6 3 3 4 5 6 4
3 9 11 7 6 10 11 4 3 5 13 14 13 15 2 3 5 4 7 9 9 14 16 14 14 15 14 13 15 11 10 9 8 7 8 7 7 3 5 6 6 4 5 3
3 1 20 6 6 22 7 2 2 1 3 7 8 4 4 4 3 5 2 6 8 10 10 11 15 16 16 15 11 12 12 11 10 8 6 6 8 5 6 6 6 5 4 3
14 10 3 6 1 3 3 3 3 2 1 2 5 6 2 4 4 3 1 3 3 7 8 8 12 14 15 12 14 13 12 11 10 8 7 6 8 7 5 5 4 4 4 3
5 4 4 5 1 2 3 3 2 2 1 1 0 2 1 2 3 3 3 3 2 6 6 7 9 8 9 14 14 15 13 11 9 10 8 6 4 5 5 6 5 5 5 5
3 2 2 2 6 4 3 4 5 3 3 4 4 3 1 2 1 1 2 2 3 5 5 5 5 6 10 13 15 14 12 11 10 8 9 8 4 5 4 2 5 6 5 5
6 7 4 4 8 6 6 5 4 5 4 4 4 3 2 1 1 3 2 1 3 4 6 5 6 6 7 9 12 13 12 9 9 8 6 6 6 4 4 6 11 10 9 7
4 5 4 5 7 5 6 4 3 7 5 4 3 2 2 1 1 2 3 3 3 3 5 6 7 8 8 10 11 12 12 11 8 8 8 8 7 7 7 1 5 9 11 14
2 7 4 2 5 4 6 6 4 4 4 4 3 4 3 3 2 1 2 3 4 5 5 4 5 7 6 9 10 11 9 12 9 9 8 7 8 7 5 7 6 3 10 9
5 4 3 7 7 5 3 3 4 5 4 5 4 3 3 4 3 3 2 1 3 2 3 5 6 6 5 4 7 8 7 7 7 6 6 6 5 4 4 4 4 3 1 5
4 7 7 8 6 4 4 5 5 2 3 2 3 4 2 1 2 2 1 1 3 2 2 3 5 4 7 7 6 4 3 6 5 5 5 5 5 6 5 5 5 5 5 4
6 4 3 4 3 3 3 2 3 2 3 5 4 3 1 2 3 4 3 2 2 1 3 5 5 5 5 5 7 4 4 4 6 4 6 7 6 8 7 7 7 6 6 5
6 6 7 6 4 5 5 5 5 5 5 4 3 3 4 5 3 4 4 2 2 5 5 4 2 4 6 8 7 5 5 5 6 7 5 6 7 6 6 7 6 6 3 3
10 10 9 10 7 6 6 6 6 5 6 6 5 4 2 2 3 3 3 4 4 5 4 4 4 5 5 6 6 4 5 5 5 4 5 6 6 5 6 6 5 4 4 4
9 7 8 8 9 8 5 5 5 6 7 6 5 6 6 6 6 6 4 2 2 3 6 6 3 3 3 5 9 4 6 7 8 7 6 7 7 7 6 6 6 5 6 5
8 7 8 7 7 6 7 5 5 7 6 6 6 5 4 6 6 6 5 4 4 7 7 7 3 2 2 3 3 4 5 5 6 6 5 6 4 4 5 5 5 6 5 5
5 5 6 6 5 4 5 5 5 4 5 5 4 4 5 5 6 6 1 1 5 8 4 4 4 4 2 5 2 3 3 4 4 4 4 5 5 5 6 6 7 6 5 5
3 3 3 5 3 1 3 4 4 4 4 4 4 4 3 3 3 2 4 4 6 8 4 4 6 6 4 2 2 3 3 3 3 3 3 4 5 6 6 6 6 7 7 7
3 5 3 4 2 2 4 5 5 4 2 4 3 3 3 5 4 1 3 6 7 6 4 5 5 7 2 0 0 1 2 2 3 4 4 6 4 4 5 5 5 5 5 6
2 3 3 5 4 2 3 3 4 3 4 4 3 2 2 2 3 5 5 5 8 5 4 7 7 6 2 1 2 3 3 3 3 3 3 4 4 4 4 5 5 5 4 5
4 2 2 3 3 2 3 3 2 3 3 4 3 2 3 2 3 4 4 5 4 5 3 4 4 2 1 1 1 2 1 1 2 2 2 2 3 3 3 4 4 4 4 4
2 1 3 3 1 2 2 2 2 3 3 1 3 4 3 4 4 4 4 4 4 3 3 3 3 3 3 3 2 1 1 1 2 1 2 2 2 3 3 3 4 4 4 5
Wind_Direction
279 227 187 184 186 188 201 227 195 246 248 215 247 266 247 239 188 179 188 196 200 199 182 176 175 175 164 149 147 139 133 126 121 108 109 112 108 107 104 103 108 112 114 107
195 327 161 188 202 200 211 230 237 252 258 147 149 178 225 220 186 212 205 205 201 193 186 190 187 178 165 166 152 141 140 134 129 124 124 120 116 117 110 110 112 109 116 117
241 135 154 268 209 201 214 216 222 236 243 156 225 245 241 202 195 211 216 210 201 195 192 191 189 178 175 165 142 148 142 141 135 131 129 128 126 121 122 124 121 123 119 117
157 83 203 256 198 210 215 230 223 249 157 208 225 228 244 216 205 221 215 196 196 196 193 187 174 164 150 150 155 152 147 143 137 136 134 134 128 126 123 131 130 134 122 120
160 192 298 274 205 147 179 261 219 237 221 239 236 3 274 216 213 222 210 211 207 192 184 171 167 158 146 150 155 155 159 154 148 146 143 142 139 140 133 117 113 111 130 135
124 216 231 332 194 150 94 268 187 202 207 216 142 217 251 235 205 227 215 190 179 168 161 164 168 157 158 165 163 169 163 158 149 146 145 149 143 138 115 118 131 134 132 133
168 224 268 231 132 122 187 244 251 225 212 199 195 223 283 346 266 241 202 177 155 163 174 173 157 158 167 167 180 163 142 137 136 142 143 139 128 114 137 131 127 125 124 141
89 150 257 152 56 177 224 123 195 50 153 197 237 324 330 344 325 299 231 146 164 158 162 157 163 168 170 177 154 144 145 144 146 143 136 139 137 130 127 136 137 139 146 136
188 209 242 204 21 108 134 155 190 155 213 211 216 244 308 321 345 13 123 140 129 143 137 154 169 178 170 161 147 145 144 146 142 134 138 145 146 144 141 150 148 158 165 169
103 230 199 200 238 196 183 146 107 79 108 119 277 284 331 12 353 16 49 107 78 117 147 162 175 173 162 151 149 150 150 148 147 152 146 146 143 156 158 167 165 168 182 184
289 358 67 239 213 146 105 98 108 71 80 76 68 31 34 90 103 91 122 103 127 144 146 157 142 133 145 150 151 152 149 152 158 161 167 158 152 169 179 180 177 178 191 173
223 189 157 205 166 154 144 141 116 109 77 57 54 65 55 68 94 141 155 139 112 126 128 131 126 124 135 156 163 153 154 161 166 158 160 159 157 143 202 193 198 197 183 171
188 142 100 91 109 121 121 116 85 92 71 97 66 52 50 48 42 118 118 144 161 166 139 144 139 142 149 161 161 168 168 165 157 158 169 168 169 173 172 196 213 214 213 203
133 124 73 144 149 123 116 106 80 69 56 43 52 39 46 58 16 104 201 213 150 138 134 137 153 179 169 171 172 173 161 164 167 175 175 168 176 181 167 176 187 211 215 200
11 10 92 103 84 81 54 112 74 61 24 52 37 64 45 43 360 296 311 33 65 82 124 144 168 189 162 157 167 158 153 168 167 158 164 162 154 153 173 172 189 176 194 233
66 58 65 90 115 98 83 52 90 62 46 64 59 41 20 228 271 326 7 63 96 265 201 182 218 168 161 162 150 138 132 141 149 158 155 160 170 176 179 189 194 201 202 205
93 76 60 67 90 62 67 63 87 97 69 45 12 354 53 24 16 10 328 261 208 213 247 208 230 140 153 168 175 175 162 150 157 150 177 184 179 193 191 192 202 204 217 175
67 68 58 76 107 114 83 58 58 55 42 335 354 46 34 28 342 325 318 311 345 305 270 266 221 156 168 176 180 163 171 176 180 192 176 179 195 188 193 209 202 202 193 213
39 55 46 53 31 60 57 41 28 22 11 358 23 23 350 13 346 324 345 45 31 352 311 321 222 167 187 185 175 157 177 172 174 185 189 180 192 190 198 199 196 194 184 192
42 39 51 57 45 41 52 17 14 35 10 2 6 26 19 8 354 353 7 349 271 298 323 325 268 193 174 179 188 175 189 194 199 202 194 200 205 204 203 188 192 186 200 200
30 32 44 50 58 47 46 20 17 31 354 17 45 22 333 325 353 347 13 20 341 350 340 331 329 283 190 173 183 170 186 195 207 206 199 207 189 181 182 194 180 204 206 207
5 14 30 32 58 58 24 15 29 23 28 26 17 9 6 359 353 340 239 158 323 336 331 330 328 300 249 200 177 177 192 198 194 170 178 178 181 188 202 192 203 203 200 211
10 347 6 24 28 327 323 17 8 26 21 21 1 352 348 290 277 15 351 317 332 325 327 321 311 306 264 199 191 179 176 185 190 189 190 191 205 210 198 195 196 196 202 207
360 11 358 324 333 40 33 341 341 354 337 310 301 300 331 346 336 254 276 297 307 310 318 309 308 303 207 99 187 187 197 207 205 206 209 209 203 203 210 208 208 203 206 209
20 345 339 8 22 8 298 308 315 350 352 334 318 311 287 256 205 309 320 315 323 344 327 322 325 309 117 161 200 213 210 199 204 201 207 212 212 208 202 201 208 208 207 211
356 350 317 266 261 306 314 330 334 322 344 355 325 339 325 308 294 295 306 318 325 337 338 339 342 7 147 197 242 244 232 228 212 198 194 203 208 211 218 215 214 216 219 229
333 360 2 351 332 321 309 279 329 322 327 264 264 289 309 311 311 314 321 322 324 326 329 334 346 355 2 356 346 320 311 299 270 234 219 213 215 215 222 233 229 230 234 228